Ukiah, CA

7:07 PM PDT on May 29, 2017 (GMT -0700)
Ukiah Municipal

Weather History for KUKI - November, 2012

Change the Weather History Date:

Monday, November 19, 2012

  Actual Average Record
Temperature  
Mean Temperature 53 °F 50 °F  
Max Temperature 56 °F 61 °F 88 °F (1936)
Min Temperature 50 °F 38 °F 20 °F (1921)
Degree Days  
Heating Degree Days 12 15  
Month to date heating degree days 200 237  
Since 1 July heating degree days 313 437  
Cooling Degree Days 0 0  
Month to date cooling degree days 1 0  
Year to date cooling degree days 983 835  
Growing Degree Days 2 (Base 50)    
Moisture  
Dew Point 51 °F    
Average Humidity 85    
Maximum Humidity 93    
Minimum Humidity 77    
Precipitation  
Precipitation 0.09 in 0.16 in 1.72 in (2016)
Month to date precipitation 1.95 2.44  
Year to date precipitation 22.95 28.57  
Since 1 July precipitation 4.03  
Snow  
Snow 0.00 in - - ()
Month to date snowfall 0.0  
Since 1 July snowfall 0.0  
Since 1 September snowfall 0.0  
Snow Depth 0.00 in    
Sea Level Pressure  
Sea Level Pressure 30.14 in    
Wind  
Wind Speed 8 mph (SSE)    
Max Wind Speed 14 mph    
Max Gust Speed 22 mph    
Visibility 7 miles    
Events Rain    
T = Trace of Precipitation, MM = Missing Value Source: NWS Daily Summary

Daily Weather History Graph

Daily Weather History Graph

Search for Another Location

Airport or City:

Trip Planner

Search our weather history database for the weather conditions in past years. The results will help you decide how hot, cold, wet, or windy it might be!

Date:

Astronomy

Nov. 19, 2012 Rise Set
Actual Time 7:01 AM PST 4:55 PM PST
Civil Twilight 6:32 AM PST 5:24 PM PST
Nautical Twilight 5:59 AM PST 5:56 PM PST
Astronomical Twilight 5:27 AM PST 6:28 PM PST
Moon 12:08 PM PST (11/19) 11:27 PM PST (11/19)
Length of Visible Light 10h 52m
Length of Day
9h 54m
Waxing Crescent, 42% of the Moon is Illuminated
Nov 19
Waxing Crescent
Nov 20
First Quarter
Nov 28
Full
Dec 6
Last Quarter
Dec 13
New

Hourly Weather History & Observations

Time (PST) Temp. Dew Point Humidity Pressure Visibility Wind Dir Wind Speed Gust Speed Precip Events Conditions
12:15 AM 50.0 °F 46.4 °F 87% 30.15 in 10.0 mi SE 5.8 mph - N/A   Overcast
12:56 AM 50.0 °F 48.0 °F 93% 30.15 in 4.0 mi SSE 4.6 mph - 0.00 in Rain Light Rain
1:56 AM 50.0 °F 48.0 °F 93% 30.13 in 10.0 mi SSE 5.8 mph - 0.00 in   Overcast
2:56 AM 51.1 °F 46.9 °F 86% 30.14 in 10.0 mi South 5.8 mph - N/A   Overcast
3:56 AM 50.0 °F 48.0 °F 93% 30.13 in 10.0 mi South 3.5 mph - N/A   Overcast
4:56 AM 51.1 °F 48.0 °F 89% 30.13 in 10.0 mi SSE 5.8 mph - N/A   Overcast
5:31 AM 51.8 °F 48.2 °F 88% 30.13 in 9.0 mi SE 3.5 mph - N/A   Overcast
5:56 AM 52.0 °F 48.9 °F 89% 30.13 in 10.0 mi SSE 3.5 mph - N/A   Overcast
6:32 AM 51.8 °F 48.2 °F 88% 30.15 in 10.0 mi SE 6.9 mph - N/A   Overcast
6:56 AM 51.1 °F 48.9 °F 92% 30.14 in 10.0 mi SE 8.1 mph - N/A   Overcast
7:56 AM 53.1 °F 46.9 °F 80% 30.17 in 10.0 mi SSE 4.6 mph - N/A   Overcast
8:56 AM 52.0 °F 48.0 °F 86% 30.18 in 10.0 mi SSE 9.2 mph - N/A   Overcast
9:56 AM 54.0 °F 48.0 °F 80% 30.19 in 10.0 mi SE 10.4 mph - N/A   Overcast
10:56 AM 54.0 °F 48.0 °F 80% 30.19 in 10.0 mi SSE 9.2 mph - N/A   Overcast
11:56 AM 55.0 °F 48.9 °F 80% 30.18 in 7.0 mi South 10.4 mph - N/A   Overcast
12:56 PM 54.0 °F 50.0 °F 86% 30.17 in 10.0 mi SSE 9.2 mph 17.3 mph N/A   Overcast
1:06 PM 53.6 °F 50.0 °F 88% 30.17 in 9.0 mi SSE 9.2 mph - N/A   Overcast
1:18 PM 53.6 °F 51.8 °F 94% 30.17 in 6.0 mi SSE 10.4 mph - N/A   Overcast
1:26 PM 53.6 °F 51.8 °F 94% 30.16 in 7.0 mi SSE 11.5 mph 17.3 mph N/A   Overcast
1:56 PM 54.0 °F 52.0 °F 93% 30.15 in 4.0 mi South 8.1 mph - N/A   Overcast
2:26 PM 53.6 °F 51.8 °F 94% 30.13 in 2.5 mi SSE 11.5 mph - 0.00 in Rain Light Rain
2:38 PM 53.6 °F 51.8 °F 94% 30.13 in 5.0 mi SSE 10.4 mph - 0.00 in   Overcast
2:45 PM 55.4 °F 51.8 °F 88% 30.14 in 9.0 mi South 11.5 mph 18.4 mph 0.00 in   Overcast
2:56 PM 55.0 °F 52.0 °F 89% 30.13 in 10.0 mi South 11.5 mph - 0.00 in   Overcast
3:07 PM 55.4 °F 51.8 °F 88% 30.13 in 10.0 mi SSE 12.7 mph 19.6 mph N/A   Overcast
3:56 PM 55.9 °F 51.1 °F 84% 30.14 in 10.0 mi SSE 11.5 mph - N/A   Overcast
4:56 PM 55.9 °F 52.0 °F 87% 30.12 in 10.0 mi SSE 9.2 mph 17.3 mph N/A   Overcast
5:56 PM 55.0 °F 53.1 °F 93% 30.12 in 6.0 mi SSE 9.2 mph - 0.01 in   Overcast
6:39 PM 55.4 °F 53.6 °F 94% 30.13 in 7.0 mi SSE 9.2 mph - 0.00 in   Overcast
6:56 PM 55.0 °F 53.1 °F 93% 30.12 in 5.0 mi SSE 8.1 mph - 0.00 in Rain Light Rain
7:56 PM 55.0 °F 53.1 °F 93% 30.12 in 4.0 mi SSE 9.2 mph - 0.02 in Rain Light Rain
8:34 PM 55.4 °F 53.6 °F 94% 30.12 in 4.0 mi SSE 6.9 mph 17.3 mph 0.01 in Rain Light Rain
8:56 PM 55.0 °F 53.1 °F 93% 30.11 in 4.0 mi SSE 8.1 mph - 0.01 in Rain Light Rain
9:56 PM 55.0 °F 53.1 °F 93% 30.12 in 3.0 mi SSE 6.9 mph - 0.01 in Rain Light Rain
10:56 PM 55.0 °F 53.1 °F 93% 30.11 in 4.0 mi SSE 9.2 mph - 0.01 in Rain Light Rain
11:15 PM 55.4 °F 53.6 °F 94% 30.11 in 2.5 mi SSE 8.1 mph - 0.01 in Rain Light Rain
11:23 PM 55.4 °F 53.6 °F 94% 30.11 in 3.0 mi SSE 8.1 mph - 0.01 in Rain Light Rain
11:36 PM 55.4 °F 53.6 °F 94% 30.11 in 4.0 mi SSE 5.8 mph - 0.02 in Rain Light Rain
11:56 PM 55.0 °F 53.1 °F 93% 30.09 in 4.0 mi SSE 5.8 mph - 0.02 in Rain Light Rain